Location: Alladorf
(49.9620°N, 11.3790°E)
Time: 20:55:30
(UTC+00:00)

Meteor 2-3 Rocket - Pass Details

Date: 29 November 2020
Orbit: 842 x 885 km, 81.2° (Epoch: 24 January)

Event Time Altitude Azimuth Distance (km) Brightness Sun altitude
Rises 05:07:50 0° 219° (SW) 3,447 6.6 -15.6°
Reaches altitude 10° 05:10:28 10° 228° (SW) 2,521 5.9 -15.2°
Maximum altitude 05:15:40 35° 293° (WNW) 1,399 4.3 -14.4°
Drops below altitude 10° 05:20:57 10° 358° (N) 2,556 6.0 -13.5°
Sets 05:23:40 0° 8° (N) 3,502 6.8 -13.1°
